Tracking 21045 objects as of 4-Aug-2020
HD Live streaming from Space Station
objects crossing your sky now

COSMOS 1528

Track COSMOS 1528 now!
10-day predictions
COSMOS 1528 is classified as:


NORAD ID: 14617
Int'l Code: 1984-001G
Perigee: 1,468.0 km
Apogee: 1,483.6 km
Inclination: 74.0 °
Period: 115.3 minutes
Semi major axis: 7846 km
RCS: 0.7124 m2 (medium)
Launch date: January 5, 1984
Source: Commonwealth of Independent States (former USSR) (CIS)
Launch site: PLESETSK MISSILE AND SPACE COMPLEX (PKMTR)
aabbcc
Your satellite tracking list
Your tracking list is empty




NASA's NSSDC Master Catalog

Two Line Element Set (TLE):
1 14617U 84001G   20217.21436292 -.00000004  00000-0  79649-4 0  9997
2 14617  74.0101 313.5522 0009940  36.4814 337.7715 12.48998628668047
Source of the keplerian elements: AFSPC